This is the latest recevied weather packets stored in our database for station/object K8DJB-1. If no packets are shown the sender has not sent any weather packets the latest 1 day(s).
| Time | Temp. | Humidity | Pressure | Rain* | Wind** | Luminosity | Snow |
|---|---|---|---|---|---|---|---|
| 1778016120 | 11.11° C | 46% | 1007.8 hPa | 0 mm | 3.58 m/s, 241° | - | - |
| 1778015520 | 11.11° C | 46% | 1007.7 hPa | 0 mm | 3.13 m/s, 241° | - | - |
| 1778015220 | 11.11° C | 45% | 1007.9 hPa | 0 mm | 4.02 m/s, 269° | - | - |
| 1778014920 | 11.11° C | 45% | 1007.9 hPa | 0 mm | 4.47 m/s, 262° | - | - |
| 1778014620 | 11.11° C | 44% | 1008 hPa | 0 mm | 3.58 m/s, 251° | - | - |
| 1778014320 | 11.11° C | 44% | 1008 hPa | 0 mm | 3.13 m/s, 234° | - | - |
| 1778014020 | 11.67° C | 45% | 1008 hPa | 0 mm | 3.58 m/s, 232° | - | - |
| 1778013420 | 11.67° C | 44% | 1008 hPa | 0 mm | 3.58 m/s, 284° | - | - |
| 1778012853 | 11.67° C | 45% | 1008.2 hPa | 0 mm | 3.58 m/s, 257° | - | - |
| 1778012553 | 11.67° C | 46% | 1008.3 hPa | 0 mm | 2.68 m/s, 262° | - | - |
| 1778012253 | 11.67° C | 44% | 1008.2 hPa | 0 mm | 3.58 m/s, 247° | - | - |
| 1778011953 | 11.67° C | 45% | 1008.2 hPa | 0 mm | 3.13 m/s, 243° | - | - |
| 1778011415 | 11.67° C | 45% | 1008.3 hPa | 0 mm | 4.02 m/s, 229° | - | - |
| 1778011115 | 11.11° C | 43% | 1008.3 hPa | 0 mm | 4.47 m/s, 238° | - | - |
| 1778010815 | 11.67° C | 43% | 1008.3 hPa | 0 mm | 4.92 m/s, 241° | - | - |
| 1778010515 | 11.11° C | 44% | 1008.3 hPa | 0 mm | 4.02 m/s, 280° | - | - |
| 1778010215 | 11.11° C | 43% | 1008.2 hPa | 0 mm | 4.92 m/s, 267° | - | - |
| 1778009915 | 11.11° C | 44% | 1008.1 hPa | 0 mm | 3.13 m/s, 250° | - | - |
| 1778009615 | 11.67° C | 42% | 1008.2 hPa | 0 mm | 4.02 m/s, 249° | - | - |
| 1778009315 | 11.67° C | 44% | 1008.3 hPa | 0 mm | 4.02 m/s, 263° | - | - |
| 1778009015 | 11.67° C | 42% | 1008.3 hPa | 0 mm | 4.92 m/s, 244° | - | - |
| 1778008715 | 11.67° C | 43% | 1008.1 hPa | 0 mm | 4.02 m/s, 290° | - | - |
| 1778008415 | 11.67° C | 42% | 1008.1 hPa | 0 mm | 4.47 m/s, 252° | - | - |
| 1778008115 | 11.67° C | 45% | 1008 hPa | 0 mm | 4.47 m/s, 294° | - | - |
| 1778007815 | 11.11° C | 43% | 1008 hPa | 0 mm | 3.58 m/s, 250° | - | - |
* Rain latest hour (hover to see other rain measurements)
** Current wind speed in m/s (hover to see current wind gust speed)